Latest Weather Observations for Whyalla

IDS60801

Issued at 3:35 pm CDT Tuesday 21 October 2014 (issued every 30 minutes, with the page automatically refreshed every 10 minutes)

About weather observations | Map of weather stations | Latest weather observations for SA | Other Formats
Station Details ID: 018120 Name: WHYALLA AERO Lat: -33.05 Lon: 137.52 Height: 6.5 m
Data from the previous 72 hours. | See also: Recent months at Whyalla
Date/Time
CDT
Temp
°C
App
Temp
°C
Dew
Point
Rel
Hum
%
Delta-T
°C
Wind Press
QNH
hPa
Press
MSL
hPa
Rain
since 9 am
mm
Dir
 
Spd
km/h
Gust
km/h
Spd
kts
Gust
kts
21/03:30pm 38.0 32.5 -1.9 8 19.5 NNW 17 22 9 12 1015.0 1015.0 0.0
21/03:00pm 37.1 27.7 -2.6 8 19.0 NNW 37 56 20 30 1015.4 1015.4 0.0
21/02:44pm 38.4 30.9 -1.6 8 19.7 NNW 28 48 15 26 1015.4 1015.4 0.0
21/02:30pm 37.4 30.9 -2.4 8 19.2 NNW 22 35 12 19 1015.7 1015.7 0.0
21/02:00pm 37.4 29.4 -2.4 8 19.2 N 30 43 16 23 1016.1 1016.1 0.0
21/01:30pm 38.3 29.6 -3.5 7 19.9 NW 33 48 18 26 1016.4 1016.4 0.0
21/01:27pm 37.8 30.2 -2.1 8 19.4 NW 28 48 15 26 1016.3 1016.3 0.0
21/01:00pm 36.9 29.2 -2.7 8 19.0 NNW 28 39 15 21 1016.7 1016.7 0.0
21/12:30pm 37.3 28.7 -2.4 8 19.1 N 33 50 18 27 1017.2 1017.2 0.0
21/12:10pm 38.4 30.9 -1.6 8 19.7 N 28 46 15 25 1017.3 1017.3 0.0
21/12:00pm 38.1 30.9 -1.9 8 19.5 N 26 37 14 20 1017.4 1017.4 0.0
21/11:47am 37.1 28.7 -2.6 8 19.1 NNW 32 50 17 27 1017.5 1017.5 0.0
21/11:30am 36.4 27.9 -3.1 8 18.7 N 32 41 17 22 1017.7 1017.7 0.0
21/11:00am 35.1 27.5 -2.5 9 17.8 N 28 41 15 22 1017.8 1017.8 0.0
21/10:30am 35.7 28.5 -2.0 9 18.1 N 26 39 14 21 1017.9 1017.9 0.0
21/10:00am 34.7 28.7 -1.4 10 17.4 N 20 30 11 16 1017.8 1017.8 0.0
21/09:30am 33.0 28.5 -0.2 12 16.1 NNE 13 22 7 12 1017.8 1017.8 0.0
21/09:00am 31.4 26.3 0.7 14 14.9 NNE 17 24 9 13 1017.8 1017.8 0.0
21/08:30am 29.4 26.4 1.8 17 13.5 NE 7 17 4 9 1017.9 1017.9 0.0
21/08:00am 25.3 22.7 3.3 24 10.8 W 6 9 3 5 1017.9 1017.9 0.0
21/07:30am 24.2 21.0 2.9 25 10.3 W 9 11 5 6 1017.6 1017.6 0.0
21/07:00am 21.3 19.8 3.0 30 8.7 CALM 0 0 0 0 1017.2 1017.2 0.0
21/06:30am 25.4 22.8 3.4 24 10.8 NNE 6 9 3 5 1016.8 1016.8 0.0
21/06:00am 25.9 22.3 3.2 23 11.1 NNE 11 15 6 8 1016.5 1016.5 0.0
21/05:30am 26.3 22.3 2.9 22 11.4 NE 13 17 7 9 1016.2 1016.2 0.0
21/05:00am 26.7 22.2 1.9 20 12.0 NNE 15 20 8 11 1016.2 1016.2 0.0
21/04:30am 26.6 22.3 3.2 22 11.5 NE 15 20 8 11 1016.0 1016.0 0.0
21/04:10am 24.8 21.5 4.5 27 10.1 NNE 11 20 6 11 1015.9 1015.9 0.0
21/04:00am 19.5 16.5 4.0 36 7.4 ENE 9 11 5 6 1016.0 1016.0 0.0
21/03:30am 17.8 15.3 3.7 39 6.6 NNE 6 6 3 3 1016.2 1016.2 0.0
21/03:00am 19.0 16.4 4.0 37 7.1 NNE 7 9 4 5 1016.7 1016.7 0.0
21/02:30am 20.8 18.4 4.4 34 7.9 N 6 7 3 4 1017.0 1017.0 0.0
21/02:00am 20.4 16.6 5.6 38 7.3 W 15 19 8 10 1017.3 1017.3 0.0
21/01:30am 21.0 19.2 5.4 36 7.7 E 4 7 2 4 1017.4 1017.4 0.0
21/01:00am 21.3 19.6 6.0 37 7.7 W 4 9 2 5 1017.7 1017.7 0.0
21/12:30am 24.0 22.8 6.3 32 9.1 E 2 6 1 3 1017.8 1017.8 0.0
21/12:00am 24.8 21.8 4.0 26 10.3 ENE 9 13 5 7 1018.1 1018.1 0.0
 
Date/Time
CDT
Temp
°C
App
Temp
°C
Dew
Point
Rel
Hum
%
Delta-T
°C
Wind Press
QNH
hPa
Press
MSL
hPa
Rain
since 9 am
mm
Dir
 
Spd
km/h
Gust
km/h
Spd
kts
Gust
kts
20/11:30pm 26.0 22.3 4.5 25 10.8 ENE 13 19 7 10 1018.1 1018.1 0.0
20/11:00pm 25.8 21.6 7.4 31 9.7 E 19 24 10 13 1018.1 1018.1 0.0
20/10:30pm 24.6 21.2 9.0 37 8.4 ENE 17 20 9 11 1018.2 1018.2 0.0
20/10:00pm 25.1 22.1 7.7 33 9.2 E 13 19 7 10 1018.2 1018.2 0.0
20/09:30pm 21.3 19.9 9.5 47 6.3 S 7 9 4 5 1018.1 1018.1 0.0
20/09:00pm 22.3 21.8 9.5 44 6.9 ESE 2 7 1 4 1017.9 1017.9 0.0
20/08:30pm 23.0 22.1 10.8 46 6.7 S 6 9 3 5 1017.8 1017.8 0.0
20/08:00pm 24.2 23.3 11.5 45 7.2 S 7 9 4 5 1017.4 1017.4 0.0
20/07:30pm 26.2 24.9 10.0 36 9.0 ESE 7 11 4 6 1016.8 1016.8 0.0
20/07:00pm 29.1 26.2 8.2 27 11.4 E 13 19 7 10 1016.4 1016.4 0.0
20/06:30pm 31.8 27.6 3.8 17 14.4 ESE 15 20 8 11 1016.2 1016.2 0.0
20/06:00pm 33.2 28.2 1.1 13 15.9 ESE 17 28 9 15 1016.1 1016.1 0.0
20/05:30pm 33.3 28.1 2.2 14 15.7 ESE 19 30 10 16 1016.2 1016.2 0.0
20/05:00pm 34.2 28.4 -0.4 11 16.9 ESE 20 28 11 15 1016.2 1016.2 0.0
20/04:30pm 33.6 28.2 2.4 14 15.9 ESE 20 28 11 15 1016.5 1016.5 0.0
20/04:00pm 34.3 28.8 1.9 13 16.4 ESE 20 28 11 15 1016.8 1016.8 0.0
20/03:30pm 33.3 27.9 2.2 14 15.7 ESE 20 28 11 15 1017.2 1017.2 0.0
20/03:00pm 31.3 27.7 8.3 24 12.7 ESE 17 24 9 13 1017.7 1017.7 0.0
20/02:30pm 30.3 26.9 9.2 27 11.8 SE 17 22 9 12 1018.3 1018.3 0.0
20/02:00pm 29.4 25.3 7.9 26 11.7 SE 19 22 10 12 1018.9 1018.9 0.0
20/01:30pm 29.7 26.2 8.7 27 11.6 SSE 17 22 9 12 1019.4 1019.4 0.0
20/01:00pm 28.7 25.9 9.9 31 10.5 SE 15 19 8 10 1019.9 1019.9 0.0
20/12:30pm 28.4 25.6 10.1 32 10.3 SE 15 19 8 10 1020.3 1020.3 0.0
20/12:00pm 27.6 25.3 11.6 37 9.2 SSE 15 20 8 11 1020.6 1020.6 0.0
20/11:30am 26.8 24.6 12.1 40 8.4 S 15 20 8 11 1021.0 1021.0 0.0
20/11:00am 25.3 23.9 12.2 44 7.5 S 11 17 6 9 1021.4 1021.4 0.0
20/10:30am 23.6 21.9 12.6 50 6.3 S 13 19 7 10 1021.6 1021.6 0.0
20/10:00am 23.6 22.6 13.5 53 5.9 S 11 15 6 8 1021.7 1021.7 0.0
20/09:30am 21.8 20.3 13.2 58 4.9 SSW 13 17 7 9 1021.5 1021.5 0.0
20/09:00am 21.3 20.2 13.2 60 4.6 SSW 11 13 6 7 1021.6 1021.6 0.0
20/08:30am 19.5 18.6 13.7 69 3.3 SSW 11 15 6 8 1021.4 1021.4 0.0
20/08:00am 15.6 16.0 11.4 76 2.3 CALM 0 6 0 3 1021.3 1021.3 0.0
20/07:30am 13.0 11.5 10.4 84 1.3 NNW 9 11 5 6 1021.2 1021.2 0.0
20/07:00am 12.3 11.5 9.7 84 1.3 WNW 4 7 2 4 1021.1 1021.1 0.0
20/06:30am 14.5 13.9 12.4 87 1.1 SSW 7 13 4 7 1020.9 1020.9 0.0
20/06:00am 13.9 13.1 11.2 84 1.4 SSW 6 11 3 6 1020.6 1020.6 0.0
20/05:30am 13.6 12.5 10.6 82 1.6 WSW 7 9 4 5 1020.3 1020.3 0.0
20/05:00am 13.6 13.1 10.9 84 1.4 SW 4 7 2 4 1020.2 1020.2 0.0
20/04:30am 13.7 12.8 10.7 82 1.6 W 6 9 3 5 1020.1 1020.1 0.0
20/04:00am 15.1 14.1 12.2 83 1.6 SSW 9 13 5 7 1020.0 1020.0 0.0
20/03:30am 15.8 14.2 12.9 83 1.6 SW 13 17 7 9 1020.1 1020.1 0.0
20/03:00am 15.8 13.7 12.4 80 1.9 SSW 15 19 8 10 1020.1 1020.1 0.0
20/02:30am 16.4 14.0 12.8 79 2.0 S 17 22 9 12 1020.2 1020.2 0.0
20/02:00am 16.4 14.2 12.0 75 2.4 SSW 15 20 8 11 1020.4 1020.4 0.0
20/01:30am 16.9 13.9 11.8 72 2.8 S 19 26 10 14 1020.7 1020.7 0.0
20/01:00am 17.3 14.6 11.8 70 3.0 SSW 17 22 9 12 1020.9 1020.9 0.0
20/12:30am 17.9 15.3 11.9 68 3.3 SSW 17 22 9 12 1020.8 1020.8 0.0
20/12:00am 18.3 15.0 11.6 65 3.7 SSW 20 28 11 15 1020.7 1020.7 0.0
 
Date/Time
CDT
Temp
°C
App
Temp
°C
Dew
Point
Rel
Hum
%
Delta-T
°C
Wind Press
QNH
hPa
Press
MSL
hPa
Rain
since 9 am
mm
Dir
 
Spd
km/h
Gust
km/h
Spd
kts
Gust
kts
19/11:30pm 18.5 15.6 12.3 67 3.4 SSW 19 24 10 13 1020.9 1020.9 0.0
19/11:00pm 18.9 17.0 13.1 69 3.3 SSW 15 20 8 11 1020.7 1020.7 0.0
19/10:30pm 19.4 16.7 12.9 66 3.7 SSW 19 24 10 13 1020.7 1020.7 0.0
19/10:00pm 19.8 17.3 13.5 67 3.6 S 19 24 10 13 1020.5 1020.5 0.0
19/09:30pm 20.4 17.7 13.4 64 4.0 S 20 22 11 12 1020.5 1020.5 0.0
19/09:00pm 21.4 18.4 12.5 57 5.0 S 20 26 11 14 1019.8 1019.8 0.0
19/08:30pm 21.8 19.2 13.2 58 4.9 S 19 24 10 13 1019.5 1019.5 0.0
19/08:00pm 22.7 18.9 12.3 52 5.9 S 24 33 13 18 1019.1 1019.1 0.0
19/07:30pm 23.2 18.6 10.9 46 6.8 S 26 41 14 22 1018.5 1018.5 0.0
19/07:29pm 23.4 19.1 10.8 45 7.0 S 24 39 13 21 1018.5 1018.5 0.0
19/07:00pm 28.6 24.7 1.2 17 13.2 E 11 17 6 9 1017.6 1017.6 0.0
19/06:30pm 30.5 25.3 0.0 14 14.6 E 17 22 9 12 1017.3 1017.3 0.0
19/06:00pm 31.4 24.9 -2.6 11 15.7 E 22 32 12 17 1017.1 1017.1 0.0
19/05:30pm 32.4 26.7 -0.6 12 15.8 E 19 26 10 14 1017.0 1017.0 0.0
19/05:00pm 31.9 26.6 2.1 15 14.9 E 19 24 10 13 1017.0 1017.0 0.0
19/04:30pm 33.9 28.0 -2.0 10 17.0 E 19 24 10 13 1016.8 1016.8 0.0
19/04:00pm 35.0 29.6 -7.9 6 18.6 NW 13 28 7 15 1017.2 1017.2 0.0
19/03:30pm 35.1 29.8 -7.8 6 18.6 NW 13 28 7 15 1017.4 1017.4 0.0
19/03:00pm 35.2 29.1 -7.7 6 18.7 NNW 17 32 9 17 1017.5 1017.5 0.0
19/02:30pm 34.2 28.2 -6.5 7 17.9 N 17 24 9 13 1017.8 1017.8 0.0
19/02:00pm 34.9 29.0 -6.0 7 18.3 N 17 24 9 13 1018.1 1018.1 0.0
19/01:30pm 33.7 26.7 -6.8 7 17.7 N 22 33 12 18 1018.6 1018.6 0.0
19/01:00pm 33.4 26.6 -5.3 8 17.3 NNW 22 32 12 17 1018.9 1018.9 0.0
19/12:30pm 34.1 26.6 -4.8 8 17.6 NNW 26 37 14 20 1019.0 1019.0 0.0
19/12:00pm 32.9 25.3 -5.7 8 17.0 N 26 39 14 21 1019.3 1019.3 0.0
19/11:30am 32.5 24.1 -6.0 8 16.9 N 30 41 16 22 1019.6 1019.6 0.0
19/11:00am 31.4 23.1 -5.2 9 16.1 NNW 30 43 16 23 1019.9 1019.9 0.0
19/10:30am 31.0 22.3 -5.5 9 15.9 N 32 43 17 23 1019.9 1019.9 0.0
19/10:00am 29.8 21.5 -5.1 10 15.2 N 30 39 16 21 1020.1 1020.1 0.0
19/09:30am 29.0 20.6 -5.7 10 14.8 N 30 37 16 20 1019.9 1019.9 0.0
19/09:00am 27.9 20.4 -4.1 12 13.9 N 26 32 14 17 1019.8 1019.8 0.0
19/08:30am 25.3 19.0 -4.1 14 12.5 N 20 30 11 16 1019.6 1019.6 0.0
19/08:00am 22.6 16.5 -3.7 17 11.0 NNW 19 26 10 14 1019.5 1019.5 0.0
19/07:30am 21.4 15.3 -3.9 18 10.4 NNW 19 24 10 13 1019.4 1019.4 0.0
19/07:00am 20.7 14.6 -3.7 19 10.1 NNW 19 22 10 12 1018.7 1018.7 0.0
19/06:30am 19.5 14.2 -4.0 20 9.5 NNW 15 17 8 9 1018.5 1018.5 0.0
19/06:00am 22.3 16.0 -3.9 17 10.9 N 20 30 11 16 1017.7 1017.7 0.0
19/05:30am 21.1 15.4 -4.1 18 10.3 N 17 20 9 11 1017.4 1017.4 0.0
19/05:00am 21.3 15.6 -4.0 18 10.4 N 17 22 9 12 1017.4 1017.4 0.0
19/04:30am 18.7 13.8 -3.4 22 9.0 NNW 13 15 7 8 1017.6 1017.6 0.0
19/04:00am 17.9 13.7 -3.5 23 8.6 NW 9 13 5 7 1017.8 1017.8 0.0
19/03:30am 17.1 11.3 -4.2 23 8.4 NW 17 19 9 10 1018.0 1018.0 0.0
19/03:00am 18.1 12.8 -3.9 22 8.8 NW 15 17 8 9 1018.0 1018.0 0.0
19/02:30am 18.0 13.0 -4.0 22 8.8 WNW 13 15 7 8 1018.2 1018.2 0.0
19/02:00am 17.4 13.6 -3.4 24 8.4 W 7 11 4 6 1018.4 1018.4 0.0
19/01:30am 17.8 13.9 -4.2 22 8.7 WNW 7 9 4 5 1018.5 1018.5 0.0
19/01:00am 17.9 13.4 -3.5 23 8.6 NW 11 13 6 7 1018.4 1018.4 0.0
19/12:30am 20.0 15.8 -3.6 20 9.7 NNW 9 11 5 6 1018.6 1018.6 0.0
19/12:00am 20.2 14.8 -4.1 19 9.9 WNW 15 19 8 10 1018.7 1018.7 0.0
 
Date/Time
CDT
Temp
°C
App
Temp
°C
Dew
Point
Rel
Hum
%
Delta-T
°C
Wind Press
QNH
hPa
Press
MSL
hPa
Rain
since 9 am
mm
Dir
 
Spd
km/h
Gust
km/h
Spd
kts
Gust
kts
18/11:30pm 21.3 16.0 -3.2 19 10.2 NNW 15 17 8 9 1018.8 1018.8 0.0
18/11:00pm 19.6 15.0 -3.9 20 9.6 NW 11 15 6 8 1019.1 1019.1 0.0
18/10:30pm 20.0 15.5 -3.6 20 9.7 NNW 11 13 6 7 1019.1 1019.1 0.0
18/10:00pm 21.8 17.6 -4.3 17 10.8 NNW 9 13 5 7 1019.0 1019.0 0.0
18/09:30pm 26.5 21.5 -4.1 13 13.2 N 13 19 7 10 1018.8 1018.8 0.0
18/09:00pm 25.1 20.8 -5.2 13 12.6 NNE 9 13 5 7 1018.7 1018.7 0.0
18/08:30pm 27.0 22.7 -4.8 12 13.6 NNE 9 13 5 7 1018.4 1018.4 0.0
18/08:00pm 28.3 23.5 -6.2 10 14.6 N 11 13 6 7 1017.9 1017.9 0.0
18/07:30pm 29.7 24.5 -6.5 9 15.4 NNE 13 15 7 8 1017.5 1017.5 0.0
18/07:00pm 31.4 25.4 -6.8 8 16.4 N 17 22 9 12 1017.4 1017.4 0.0
18/06:30pm 32.5 26.6 -6.0 8 16.9 N 17 24 9 13 1017.3 1017.3 0.0
18/06:00pm 32.9 26.4 -5.7 8 17.1 NNW 20 28 11 15 1017.1 1017.1 0.0
18/05:30pm 33.3 28.2 -5.4 8 17.2 NNE 13 20 7 11 1017.0 1017.0 0.0
18/05:00pm 33.6 27.2 -5.2 8 17.4 N 20 30 11 16 1017.0 1017.0 0.0
18/04:30pm 33.5 26.7 -5.2 8 17.3 NNW 22 30 12 16 1017.3 1017.3 0.0
18/04:00pm 33.2 26.0 -5.5 8 17.2 N 24 39 13 21 1017.5 1017.5 0.0

Other Formats:

Comma delimited format used in spreadsheet applications
http://www.bom.gov.au/fwo/IDS60801/IDS60801.95664.axf

JavaScript Object Notation format (JSON) in row-major order
http://www.bom.gov.au/fwo/IDS60801/IDS60801.95664.json